DL3NBY Weather Reports


time (UTC)temp
F
wind
direction
speed
knots
gust
knots
rain 1hr
in
rain 24hr
in
rain mn
in
humidity
%
barometer
mb
20260904221110 69 270 0.9 4.3 0.00 0.00 0.00 74 1014.8
20260904220027 69 152 2.6 10.4 0.00 0.00 0.00 74 1014.5
20260904215023 70 258 1.7 7.8 0.00 0.00 0.00 75 1014.3
20260904214040 71 203 1.7 9.6 0.00 0.00 0.00 76 1013.8
20260904212114 76 241 2.6 7.0 0.00 0.00 0.00 72 1012.7
20260904211111 76 261 1.7 6.1 0.00 0.00 0.00 67 1012.0
20260904210108 76 221 0.9 6.1 0.00 0.00 0.00 68 1011.9
20260904205105 76 204 1.7 6.1 0.00 0.00 0.00 68 1011.9
20260904204122 76 237 1.7 6.1 0.00 0.00 0.00 67 1011.8
20260904203058 76 206 0.9 3.5 0.00 0.00 0.00 67 1011.7
20260904202055 76 202 0.9 4.3 0.00 0.00 0.00 67 1011.6
20260904201052 76 311 0.9 3.5 0.00 0.00 0.00 67 1011.5
20260904200049 76 252 0.9 3.5 0.00 0.00 0.00 67 1011.5
20260904195046 76 288 0.9 4.3 0.00 0.00 0.00 67 1011.5
20260904194043 76 293 0.0 2.6 0.00 0.00 0.00 66 1011.4
20260904193040 76 225 0.0 3.5 0.00 0.00 0.00 67 1011.2
20260904192037 76 270 0.0 4.3 0.00 0.00 0.00 67 1011.1
20260904191054 75 180 0.0 1.7 0.00 0.00 0.00 67 1011.0
20260904185023 75 0.0 0.0 0.00 0.00 0.00 74 1010.8
20260904184019 76 0.0 0.9 0.00 0.00 0.00 69 1010.8
20260904183016 77 0.0 1.7 0.00 0.00 0.00 68 1010.9
20260904182113 78 240 0.0 2.6 0.00 0.00 0.00 64 1010.7
20260904181110 79 192 0.9 3.5 0.00 0.00 0.00 62 1010.6
20260904180107 79 196 0.9 5.2 0.00 0.00 0.00 63 1010.6
20260904174101 79 270 0.0 2.6 0.00 0.00 0.00 64 1010.4
20260904173058 80 225 0.0 3.5 0.00 0.00 0.00 61 1010.3
20260904172055 80 113 0.0 1.7 0.00 0.00 0.00 61 1010.2
20260904171112 80 197 0.9 4.3 0.00 0.00 0.00 61 1010.5
20260904170048 81 270 0.0 2.6 0.00 0.00 0.00 60 1010.5
20260904165035 82 190 0.9 3.5 0.00 0.00 0.00 58 1010.5
20260904163028 83 225 2.6 7.0 0.00 0.00 0.00 56 1010.5
20260904162025 83 259 1.7 4.3 0.00 0.00 0.00 57 1010.5
20260904161022 83 228 1.7 4.3 0.00 0.00 0.00 56 1010.6
20260904160019 84 183 0.9 3.5 0.00 0.00 0.00 57 1010.5
20260904155015 84 285 1.7 7.0 0.00 0.00 0.00 55 1010.5
20260904154112 84 170 2.6 9.6 0.00 0.00 0.00 56 1010.4
20260904153130 85 220 2.6 11.3 0.00 0.00 0.00 56 1010.5
20260904152106 85 262 3.5 10.4 0.00 0.00 0.00 55 1010.5
20260904151123 85 229 1.7 7.0 0.00 0.00 0.00 55 1010.5
20260904150100 85 240 5.2 18.2 0.00 0.00 0.00 55 1010.5
20260904145056 85 249 1.7 7.0 0.00 0.00 0.00 55 1010.5
20260904144053 85 261 1.7 7.0 0.00 0.00 0.00 55 1010.6
20260904142107 85 254 2.6 11.3 0.00 0.00 0.00 54 1010.8
20260904141044 85 207 1.7 11.3 0.00 0.00 0.00 55 1010.8
20260904140041 85 251 1.7 10.4 0.00 0.00 0.00 57 1011.0
20260904134034 83 205 1.7 7.0 0.00 0.00 0.00 57 1011.2
20260904133031 83 255 0.9 7.0 0.00 0.00 0.00 57 1011.4
20260904132028 84 222 4.3 13.9 0.00 0.01 0.00 58 1011.4
20260904131023 85 256 3.5 13.0 0.00 0.04 0.00 56 1011.5
20260904125016 84 187 2.6 13.0 0.00 0.07 0.00 58 1011.7
20260904124133 84 266 3.5 9.6 0.00 0.07 0.00 59 1012.0
20260904123130 83 309 1.7 6.1 0.00 0.07 0.00 59 1012.2
20260904122107 82 270 1.7 7.0 0.00 0.07 0.00 61 1012.5
20260904121103 81 237 1.7 9.6 0.00 0.07 0.00 64 1012.6
20260904120120 81 232 1.7 6.1 0.00 0.07 0.00 63 1012.9
20260904115057 80 235 1.7 10.4 0.00 0.07 0.00 64 1013.1
20260904112048 79 248 0.9 7.0 0.00 0.07 0.00 68 1013.4
20260904111045 79 231 2.6 8.7 0.00 0.07 0.00 69 1013.5
20260904110042 79 237 1.7 5.2 0.00 0.07 0.00 70 1013.5
20260904105039 78 243 2.6 11.3 0.00 0.07 0.00 68 1013.6
20260904103033 76 249 1.7 8.7 0.00 0.07 0.00 73 1013.7
20260904102029 76 203 1.7 7.0 0.00 0.07 0.00 73 1014.0
20260904101026 76 180 0.0 2.6 0.00 0.07 0.00 75 1014.2
20260904100043 76 238 0.9 3.5 0.00 0.07 0.00 75 1014.3
20260904095020 75 193 1.7 7.0 0.00 0.07 0.00 77 1014.5
20260904094017 75 225 1.7 9.6 0.00 0.07 0.00 77 1014.6
20260904093114 75 194 3.5 9.6 0.00 0.07 0.00 78 1014.8
20260904092111 74 227 2.6 11.3 0.00 0.07 0.00 78 1015.0
20260904090105 74 219 2.6 9.6 0.00 0.07 0.00 79 1015.3
20260904085101 73 254 2.6 9.6 0.00 0.07 0.00 79 1015.3
20260904084119 73 222 2.6 9.6 0.00 0.07 0.00 81 1015.4
20260904083055 72 223 0.9 6.1 0.00 0.07 0.00 82 1015.4
20260904082052 70 225 0.9 3.5 0.00 0.07 0.00 85 1015.5
20260904081049 69 197 0.9 3.5 0.00 0.07 0.00 87 1015.7
20260904080046 68 0.0 0.0 0.00 0.07 0.00 91 1015.8
20260904075044 67 0.0 1.7 0.00 0.07 0.00 91 1016.0
20260904074039 66 0.0 0.0 0.00 0.07 0.00 92 1016.1
20260904073037 66 0.0 0.0 0.00 0.07 0.00 93 1016.2
20260904072033 65 180 0.0 3.5 0.00 0.07 0.00 94 1016.4
20260904071050 65 225 0.0 1.7 0.00 0.07 0.00 93 1016.4
20260904070027 64 180 0.9 3.5 0.00 0.07 0.00 94 1016.4
20260904065024 64 226 0.9 5.2 0.00 0.07 0.00 94 1016.4
20260904064021 63 180 0.9 3.5 0.00 0.07 0.00 94 1016.4
20260904061112 62 180 0.0 2.6 0.00 0.07 0.00 95 1016.4
20260904060109 61 270 0.9 3.5 0.00 0.07 0.00 96 1016.4
20260904055105 61 214 0.9 3.5 0.00 0.07 0.00 95 1016.4
20260904054102 61 235 1.7 3.5 0.00 0.07 0.00 95 1016.5
20260904052056 61 220 1.7 5.2 0.00 0.07 0.00 95 1016.5
20260904051053 61 218 1.7 3.5 0.00 0.07 0.00 96 1016.6
20260904044041 61 205 2.6 3.5 0.00 0.07 0.00 96 1016.6
20260904043038 61 210 1.7 3.5 0.00 0.07 0.00 96 1016.7
20260904042035 61 203 1.7 3.5 0.00 0.07 0.00 97 1016.6
20260904041032 62 206 2.6 4.3 0.00 0.07 0.00 97 1016.7
20260904040028 62 233 1.7 3.5 0.00 0.07 0.00 95 1016.8
20260904034022 62 187 1.7 4.3 0.00 0.07 0.00 94 1016.9
20260904033019 61 203 0.9 3.5 0.00 0.07 0.00 95 1016.9
20260904032016 59 199 2.6 5.2 0.00 0.07 0.00 97 1016.8
20260904031113 57 207 0.9 3.5 0.00 0.07 0.00 99 1016.9
20260904030109 55 0.0 0.0 0.00 0.07 0.00 99 1017.0
20260904025126 55 0.0 0.0 0.00 0.07 0.00 99 1017.1
20260904023100 57 0.0 0.0 0.00 0.07 0.00 99 1017.3
20260904022057 58 0.0 0.0 0.00 0.07 0.00 99 1017.4
20260904021055 58 0.0 0.9 0.00 0.07 0.00 99 1017.3
20260904020050 56 258 0.9 3.5 0.00 0.07 0.00 99 1017.2
20260904012038 56 0.0 0.0 0.00 0.07 0.00 99 1017.7
20260904011035 55 0.0 0.0 0.00 0.07 0.00 99 1017.5
20260904010032 55 0.0 0.0 0.00 0.07 0.00 99 1017.6
20260904004025 56 0.0 0.0 0.00 0.07 0.00 99 1017.6
20260904003042 57 0.0 0.0 0.00 0.07 0.00 99 1017.8
20260904002019 58 0.0 0.0 0.00 0.07 0.00 99 1018.0
20260904001016 57 0.0 0.0 0.00 0.07 0.00 99 1018.0
20260904000113 57 0.0 0.0 0.00 0.07 0.00 99 1018.0
20260903235110 58 0.0 0.0 0.00 0.07 0.00 99 1018.2
20260903234107 58 0.0 0.0 0.00 0.07 0.00 99 1018.3
20260903232059 59 0.0 0.0 0.00 0.07 0.00 99 1018.5
20260903231056 59 0.0 0.0 0.00 0.07 0.00 99 1018.5
20260903230053 59 0.0 0.0 0.00 0.07 0.00 99 1018.4
20260903225050 59 0.0 0.0 0.00 0.07 0.00 99 1018.5
20260903224046 59 0.0 0.0 0.00 0.07 0.00 99 1018.7
20260903223103 59 0.0 0.0 0.00 0.07 0.00 99 1018.7
20260903222040 59 0.0 0.0 0.00 0.07 0.00 99 1018.6